Location: Unspecified
(41.9031°N, 12.4386°E)
Time: 20:47:32
(UTC+02:00)

ISS - Visible Passes

Search period start: 03 August 2020 00:00
Search period end: 13 August 2020 00:00
Orbit: 419 x 420 km, 51.6° (Epoch: 04 August)

Date Brightness Start Highest point End Pass type
(mag) Time Alt. Az. Time Alt. Az. Time Alt. Az.
03 Aug -1.6 22:03:26 10° W 22:05:45 17° SW 22:06:58 15° SSW visible
04 Aug -2.2 21:15:22 10° WNW 21:18:21 29° SW 21:21:18 10° SSE visible
06 Aug -0.8 21:19:10 10° WSW 21:19:37 10° SW 21:20:04 10° SW visible
